Location: Indian Springs
(36.5700°N, 115.6700°W)
Time: 01:14:15
(UTC-07:00)

Daily predictions for brighter satellites

Satellite Brightness Start Highest point End
(mag) Time Altitude Azimuth Time Altitude Azimuth Time Altitude Azimuth
ATLAS 3B R/B 4.0 01:43:21 39° N 01:43:21 39° N 01:48:22 10° NNE
CZ-4C R/B 4.0 02:19:03 28° NNE 02:19:03 28° NNE 02:21:54 10° NNE
Cosmos 2369 Rocket 4.3 02:17:34 10° N 02:21:52 22° ENE 02:23:07 20° ENE
USA 234 3.9 02:30:28 10° NE 02:35:17 47° E 02:35:17 47° E
SL-16 R/B 3.9 02:37:13 30° E 02:38:42 33° ENE 02:44:09 10° N
SL-16 R/B 4.2 02:42:52 20° NNW 02:42:52 20° NNW 02:45:13 10° N
Resurs 1-4 Rocket 3.9 02:36:23 10° NE 02:39:45 25° ENE 02:39:45 25° ENE
NOSS 3-2 (A) 4.1 02:52:00 50° N 02:52:00 50° N 02:56:56 10° NNE
Centaur D-1A AC-31 3.7 02:05:36 10° WSW 02:58:22 52° S 03:04:22 10° ESE
CENTAUR R/B 3.7 03:06:29 30° ESE 03:06:56 30° ESE 03:12:29 10° NE
NOSS 3-2 (C) 3.8 03:08:24 57° N 03:08:24 57° N 03:13:57 10° NNE
ATLAS 5 CENTAUR R/B 3.0 03:15:02 40° ENE 03:15:02 40° ENE 03:18:38 10° NE
Meteor 2-10 4.3 03:26:58 71° ENE 03:26:58 71° ENE 03:32:01 10° NNE
Cosmos 883 Rocket 4.5 03:39:30 62° WNW 03:39:30 62° WNW 03:45:11 10° N
CZ-2D R/B 4.4 03:35:53 10° NNE 03:39:47 48° E 03:39:47 48° E
Okean O Rocket 3.1 03:36:36 10° NE 03:40:34 31° E 03:41:36 28° ESE
Cosmos 839 Rocket 4.1 03:36:16 10° NNW 03:44:07 71° WSW 03:46:11 46° S
Meteor 2-3 Rocket 4.1 03:39:54 10° NNW 03:44:29 50° NW 03:44:29 50° NW
Cosmos 1302 Rocket 4.0 03:41:33 10° NNW 03:46:49 78° ENE 03:47:53 56° SE
CZ-2D R/B 2.1 03:41:44 10° N 03:46:36 67° NW 03:46:36 67° NW
Atlas Centaur 2 4.0 03:50:12 13° SE 03:50:12 13° SE 03:51:28 10° ESE
Cosmos 389 Rocket 4.0 03:51:36 35° NE 03:51:36 35° NE 03:54:03 10° NNE
IRS-1D 4.0 03:47:12 10° N 03:51:38 48° NW 03:51:38 48° NW
MOS 1-B 4.2 03:46:27 10° NNE 03:52:16 90° WNW 03:53:21 62° SSW
Cosmos 1943 3.8 03:53:04 40° NW 03:53:04 40° NW 03:58:04 10° N
Cosmos 2315 Rocket 3.9 03:52:36 63° SW 03:53:23 70° W 03:59:39 10° N
COSMOS 2406 4.1 03:51:05 29° SSE 03:53:29 44° ESE 03:58:55 10° NE
Cosmos 1184 Rocket 4.5 03:53:50 10° N 03:56:00 33° NNE 03:56:00 33° NNE
Cosmos 1455 3.3 04:01:16 37° NNW 04:01:16 37° NNW 04:03:46 10° N
ARIANE 5 R/B 3.3 03:56:49 10° N 04:01:04 37° NW 04:01:04 37° NW
CZ-4C R/B 4.5 04:04:14 10° NW 04:06:07 12° NNW 04:08:08 10° N
Cosmos 2369 Rocket 2.7 04:00:45 10° NNW 04:04:45 40° WNW 04:04:45 40° WNW
SeaSat 1 2.9 04:01:56 10° SE 04:06:46 60° ENE 04:11:38 10° NNW
Meteor 2-11 Rocket 4.5 04:09:42 49° SW 04:10:57 58° W 04:16:56 10° N
CZ-4B R/B 3.6 04:06:21 10° NNE 04:11:34 56° E 04:15:06 20° S
PSLV R/B 3.8 04:07:55 10° NNE 04:11:42 73° ESE 04:11:56 69° SE
Cosmos 1862 Rocket 3.6 04:18:09 56° WNW 04:18:09 56° WNW 04:22:25 10° N
USA 234 4.0 04:13:44 10° NNE 04:19:42 39° NW 04:22:38 26° W
Resurs 1-4 Rocket 2.9 04:15:59 10° N 04:20:38 33° WNW 04:20:51 32° WNW
CZ-2C R/B 3.8 04:16:42 10° SSE 04:21:08 74° ENE 04:25:33 10° N
SL-16 R/B 3.1 04:22:19 34° W 04:22:19 34° W 04:27:48 10° NNW
Cosmos 1174 4.4 04:24:31 35° SSW 04:26:57 87° ESE 04:31:36 10° NNE
Cosmos 1943 Rocket 2.1 04:23:04 10° NNW 04:28:45 78° WSW 04:34:21 10° SSE
Cosmos 1408 3.0 04:27:06 10° N 04:30:50 64° E 04:34:32 10° SSE
Okean 1-7 4.2 04:26:57 10° SSE 04:30:59 41° E 04:35:04 10° NNE
Thor Agena Rocket 4.0 04:28:18 10° SSE 04:33:21 61° ENE 04:38:29 10° N
SL-27 R/B 2.7 04:34:22 50° W 04:34:30 51° WNW 04:38:04 10° N
ADEOS II 3.4 04:30:06 10° NNE 04:35:01 39° E 04:39:55 10° SSE
Cosmos 1825 2.1 04:35:12 10° N 04:39:00 86° E 04:42:47 10° S
Nadezhda 1 Rocket 4.0 04:34:14 10° S 04:40:27 87° W 04:46:50 10° N
Cosmos 1992 Rocket 4.2 04:36:52 10° NNW 04:42:07 75° ENE 04:47:19 10° SSE
USA 32 4.0 04:38:11 10° S 04:43:25 89° W 04:48:41 10° N
MOZ.5/SAFIR/RUBIN 5/SL-8 3.8 04:39:53 11° S 04:44:13 56° W 04:48:46 10° NNW
PAYLOAD B 4.2 04:39:06 10° N 04:44:36 68° WNW 04:48:43 18° SSW
CZ-3 R/B 4.2 03:58:27 10° W 04:45:24 49° SW 04:56:05 10° SE
Cosmos 1733 Rocket 4.0 04:42:36 10° NNW 04:46:14 28° W 04:46:14 28° W
Aureole 3 Rocket 4.0 04:41:02 10° S 04:48:36 90° E 04:53:57 10° N
AVUM R/B 4.5 04:48:12 15° S 04:50:30 39° ESE 04:53:36 10° NE
NAVSTAR 52 R/B(PAM-D 4.3 04:53:57 31° NNE 04:53:57 31° NNE 04:55:15 10° ENE
Cosmos 1862 3.3 04:50:11 10° NNW 04:54:04 53° W 04:57:55 10° S
ADEOS Rocket 3.8 04:46:59 10° NNE 04:54:48 78° ESE 05:02:28 10° S
Cosmos 1782 Rocket 3.5 04:50:27 10° N 04:54:48 84° E 04:59:08 10° S
PSLV R/B 4.3 04:52:52 17° WNW 04:55:10 43° N 04:58:26 10° E
CENTAUR R/B 3.1 04:53:42 22° WSW 04:57:16 43° NW 05:03:44 10° NNE
ATLAS 5 CENTAUR R/B 3.5 04:56:36 16° WNW 04:58:44 21° NW 05:02:37 10° N
Cosmos 1656 Rocket 3.6 04:54:25 10° NNW 04:59:52 88° ENE 05:05:17 10° SSE
Cosmos 2074 Rocket 4.3 05:01:50 10° NNW 05:07:37 42° W 05:13:25 10° SSW
Cosmos 676 Rocket 4.3 05:03:09 10° S 05:08:17 70° ESE 05:13:27 10° NNE
Meteor 1-26 Rocket 4.3 05:03:00 10° SSW 05:08:48 77° W 05:14:43 10° N
Cosmos 1933 4.4 05:07:24 20° WSW 05:09:13 28° WNW 05:12:46 10° NNW
CZ-4B R/B 3.6 05:06:35 10° N 05:09:50 30° WNW 05:11:52 18° WSW
Cosmos 2154 Rocket 4.0 05:04:15 10° N 05:10:36 87° W 05:16:57 10° S
Cosmos 2184 Rocket 4.4 05:05:54 10° NNW 05:11:49 41° W 05:17:41 10° SSW
Feng Yun 1-1 Rocket 4.2 05:06:47 10° NNE 05:12:12 88° ESE 05:17:38 10° SSW
Cosmos 1908 Rocket 4.3 05:11:24 10° NNW 05:15:13 30° W 05:19:01 10° SSW
Okean O Rocket 3.0 05:13:21 10° NNW 05:16:44 21° WNW 05:19:03 15° WSW
Cosmos 2221 Rocket 4.2 05:13:06 12° SW 05:16:49 36° W 05:20:56 10° N
Meteor 1-14 Rocket 4.3 05:14:39 10° N 05:20:31 87° W 05:26:28 10° S
Okean-O 2.7 05:17:58 10° N 05:22:20 58° WNW 05:26:41 10° SSW
Cosmos 407 Rocket 3.6 05:21:38 10° SSW 05:26:44 56° WNW 05:31:55 10° N
Cosmos 2341 Rocket 4.0 05:25:42 10° N 05:31:59 76° W 05:38:18 10° S
Cosmos 1782 3.6 05:29:15 10° S 05:33:12 58° E 05:37:11 10° NNE
Atlas Centaur 2 2.9 05:33:06 10° SW 05:37:19 35° SSE 05:42:32 10° ESE
COSMOS 2406 4.4 05:33:19 10° WSW 05:37:58 25° WNW 05:42:37 10° N
Meteor PRIRODA 4.1 05:35:07 10° N 05:38:41 42° WNW 05:42:15 10° SW
SL-8 Rocket 4.3 05:34:27 10° N 05:40:40 75° E 05:46:54 10° SSE
SeaSat 1 3.9 05:41:46 10° SW 05:44:34 15° WSW 05:47:24 10° WNW
Cosmos 2151 Rocket 3.5 05:41:52 10° N 05:46:15 74° W 05:50:37 10° S
